Theta_e
343 348 346 345 351 355 356 356 357 358 360 354 353 350 347 344 343 341 340 338 334 331 332 334 332 333 328 326 325 323 321 320 313 317 318 320 320 317 314 315 315 316 313
335 339 348 350 347 353 353 356 358 357 359 354 352 350 348 345 344 341 338 335 332 329 330 332 330 329 333 333 324 330 324 323 317 320 318 316 316 318 316 316 314 313 314
329 330 338 349 352 355 357 357 358 357 357 354 352 350 348 347 344 342 338 335 331 331 330 329 330 331 330 326 325 321 320 318 319 315 313 315 313 314 313 316 316 319 313
324 328 331 337 341 349 351 353 356 357 354 353 352 349 349 348 346 342 339 336 333 332 330 331 331 330 329 328 322 324 322 316 317 315 312 310 311 315 313 311 310 312 311
321 323 331 336 339 344 347 347 349 353 353 353 351 349 349 346 345 343 340 337 335 333 331 329 329 328 325 323 319 321 320 313 312 309 308 308 308 308 309 310 310 310 315
321 320 324 332 334 337 341 346 344 344 348 349 349 347 345 344 327 322 335 338 336 332 327 326 329 323 318 315 315 315 314 312 307 306 305 307 312 311 311 308 308 307 306
320 320 321 324 328 331 334 337 344 341 342 344 348 348 343 345 315 316 319 339 336 330 327 326 322 320 316 315 311 311 309 309 312 311 310 311 313 315 317 314 312 310 308
319 319 320 322 324 329 332 335 336 345 339 340 343 345 342 342 311 311 315 338 335 332 328 326 321 317 315 313 309 310 307 309 307 307 314 320 319 321 320 317 317 314 313
318 319 319 321 323 326 328 331 336 336 341 338 340 341 338 339 309 309 316 332 330 330 329 323 320 315 305 305 307 307 305 304 306 305 304 303 303 304 309 312 308 308 308
318 319 320 321 322 324 328 329 332 336 333 339 336 337 331 336 306 308 317 329 326 325 323 320 310 311 302 302 305 304 299 301 304 305 306 306 310 307 302 315 313 308 307
319 319 321 322 326 327 328 329 329 330 331 332 333 333 333 331 314 306 311 326 323 318 315 312 311 302 300 300 300 301 301 305 304 306 309 310 310 310 307 309 316 312 308
322 320 321 325 324 323 327 327 326 326 328 328 331 330 330 331 311 306 310 314 316 316 313 311 309 299 297 297 300 300 300 301 306 307 308 307 306 307 309 310 316 317 315
316 321 323 323 323 325 326 326 323 322 322 327 327 326 325 319 314 307 309 307 309 315 315 308 301 297 296 298 299 300 300 303 305 304 305 307 309 311 315 316 318 317 316
314 319 322 321 321 326 325 326 321 319 318 320 324 323 322 316 315 312 312 311 308 312 308 305 299 299 299 301 301 302 303 305 305 306 307 309 310 312 311 311 309 310 310
317 319 320 319 323 324 326 325 319 318 312 312 316 322 320 315 315 310 310 313 310 309 305 299 298 298 298 298 300 302 304 304 305 306 307 307 307 310 310 313 311 310 308
315 315 317 317 321 323 324 321 303 300 297 296 298 307 319 306 302 301 303 303 301 300 300 297 297 298 297 297 298 301 303 304 306 306 308 307 308 309 309 310 309 308 307
315 318 315 315 322 322 322 321 314 312 299 298 297 296 300 303 297 299 299 298 297 299 302 299 298 298 297 298 300 302 302 305 306 306 307 309 310 310 306 309 307 307 307
317 309 320 319 322 323 321 318 317 312 309 308 299 295 295 296 298 295 296 297 297 301 303 301 300 297 296 298 300 302 301 304 305 307 309 310 310 309 308 308 306 306 307
319 320 321 322 323 318 318 316 315 312 307 305 301 299 294 293 294 294 296 302 301 303 302 301 300 298 299 301 301 301 303 305 306 306 310 310 310 309 309 307 307 297 300
320 305 307 316 316 317 316 311 311 306 303 303 301 297 295 294 296 297 303 302 303 302 302 301 299 300 300 300 300 301 303 304 306 309 310 310 311 310 308 307 307 306 306
316 317 298 312 311 311 310 308 308 305 303 301 297 296 290 299 297 300 302 303 303 302 301 300 299 300 300 300 302 304 305 306 307 310 310 309 311 309 308 308 308 308 308
309 309 307 306 306 305 304 306 305 303 301 298 296 294 288 300 300 302 303 304 304 304 303 302 301 301 302 302 305 306 306 307 307 309 309 310 309 308 308 308 308 308 308
307 306 307 306 305 299 303 302 300 299 298 297 297 299 300 301 302 302 302 303 304 304 305 304 303 303 304 305 308 308 306 307 308 309 309 310 309 308 308 307 307 307 307
307 305 305 306 306 303 303 301 300 294 297 298 299 298 298 300 300 300 301 303 304 304 305 306 306 307 304 306 308 308 310 309 310 310 311 310 309 305 307 307 307 307 306
307 306 304 304 305 303 303 302 302 300 299 299 299 299 299 300 300 301 302 303 303 304 304 305 306 306 308 309 310 307 302 290 306 302 312 311 309 310 307 307 307 306 307
307 305 305 304 303 303 302 302 302 302 302 301 300 300 300 300 301 302 302 303 303 304 305 306 306 306 307 308 309 299 288 290 300 291 310 312 309 308 307 308 307 306 307
Wind_Speed
15 14 9 10 13 14 16 17 18 18 17 20 20 19 19 20 20 18 17 16 18 14 15 14 14 12 10 9 9 8 8 6 3 7 9 9 8 5 8 6 6 8 9
15 15 16 10 11 12 13 16 16 19 19 20 21 21 20 21 21 21 20 18 19 18 16 15 16 12 12 10 10 8 7 6 5 9 9 10 8 9 6 6 6 9 7
15 16 15 15 8 10 12 14 15 17 19 21 21 21 21 22 22 21 20 19 20 18 18 16 15 14 12 11 10 10 10 6 6 8 9 8 8 8 7 7 6 6 5
17 16 15 15 16 7 9 10 14 16 18 19 20 20 20 22 22 21 21 19 19 17 15 15 16 16 15 12 11 11 10 6 8 7 8 8 9 8 8 8 7 7 5
16 18 15 13 15 15 9 11 11 16 16 17 18 20 21 21 18 22 21 20 19 18 17 17 17 18 18 15 11 12 11 8 8 5 7 7 8 9 9 7 7 4 6
16 17 18 16 13 13 16 12 10 12 15 17 20 20 21 16 20 21 21 20 20 20 19 17 16 20 15 12 7 13 11 9 9 5 5 8 8 8 9 6 7 6 5
18 17 16 17 16 14 14 15 13 12 13 17 19 20 18 20 17 23 22 19 21 21 20 19 15 14 19 16 13 13 11 11 6 5 7 10 8 9 7 5 3 5 5
19 19 17 16 17 16 15 14 11 13 13 14 17 18 17 17 18 23 23 20 19 21 21 20 19 20 19 19 14 14 8 6 6 5 2 3 8 7 7 8 7 4 5
19 18 18 15 16 18 16 15 13 11 13 13 13 16 14 17 21 24 22 18 19 21 19 19 17 20 25 28 21 17 11 8 11 9 8 7 10 9 3 7 7 8 8
20 19 17 16 14 17 16 15 14 12 12 13 11 13 16 15 19 28 28 15 18 15 17 18 24 21 27 27 23 22 15 14 13 8 7 5 8 7 3 5 5 7 3
20 18 18 17 15 13 15 13 12 12 13 13 12 10 13 15 15 27 32 16 14 15 15 15 13 27 32 27 24 19 21 16 16 13 12 10 9 9 9 7 6 6 4
21 18 18 17 15 13 14 12 12 12 13 12 12 11 11 14 16 25 34 22 21 18 19 16 18 31 31 28 22 20 23 21 12 13 12 12 12 12 11 10 8 7 2
19 22 16 16 17 17 16 13 11 10 10 11 9 9 9 5 9 25 31 22 22 16 11 17 24 32 30 23 23 26 25 12 12 12 12 11 11 10 10 11 8 7 6
18 18 16 15 16 16 11 9 7 10 8 11 8 9 8 8 8 11 14 12 16 9 15 16 26 25 26 20 19 18 11 12 11 12 11 10 10 9 9 9 9 9 9
16 16 15 15 15 13 11 10 6 7 7 7 9 9 9 10 12 16 19 16 14 12 14 14 16 15 15 14 13 11 10 13 13 13 10 10 10 10 9 9 9 10 8
15 12 14 13 10 12 11 12 8 11 12 11 15 10 7 4 12 20 25 26 25 30 18 16 17 17 18 17 14 13 13 12 11 11 10 10 11 10 10 9 9 8 8
14 15 14 13 11 12 10 10 8 7 10 8 10 12 13 7 11 12 12 14 26 29 13 17 18 17 16 16 15 13 14 13 14 11 11 10 10 10 9 9 9 8 7
16 16 12 12 11 11 8 7 7 8 10 6 1 6 6 11 16 20 21 18 14 10 11 14 13 14 13 13 14 13 14 13 13 10 11 10 10 10 10 9 10 10 8
12 11 10 10 9 7 6 6 7 8 5 4 3 3 3 7 14 25 27 14 17 12 13 14 16 15 17 15 13 11 13 12 12 10 10 10 10 10 10 10 9 8 7
13 13 10 9 9 9 7 6 8 4 5 4 2 1 1 3 6 9 11 12 12 11 12 14 15 14 14 15 14 14 15 12 13 11 10 10 9 9 10 12 11 11 8
9 10 8 8 8 7 7 6 5 3 2 2 2 1 4 4 7 9 7 9 9 10 12 14 14 14 12 12 12 13 13 12 13 11 10 10 10 10 10 10 10 9 8
8 8 8 8 7 7 7 6 5 3 3 2 1 1 0 5 6 6 6 6 7 10 11 14 13 11 12 12 13 12 13 12 12 10 10 11 11 11 10 10 9 9 9
9 9 7 7 7 8 7 8 7 6 5 3 2 1 4 5 5 7 7 7 8 9 11 12 13 11 11 11 11 10 12 10 12 11 11 11 12 11 11 10 9 8 8
9 9 10 9 8 8 8 7 7 7 6 6 6 7 7 7 8 11 9 8 9 10 10 11 7 4 18 11 9 10 7 10 11 12 14 11 11 9 10 10 9 10 9
10 9 9 8 7 7 8 7 7 7 7 6 6 7 7 8 9 10 9 8 9 9 9 7 6 6 6 6 3 16 11 5 11 10 10 12 13 13 12 9 10 10 11
10 10 8 8 8 7 7 6 7 7 6 5 5 6 7 7 7 6 7 8 8 9 11 7 8 9 8 5 10 6 7 8 5 5 5 9 9 9 10 11 14 9 10
Wind_Direction
351 331 281 265 257 242 244 235 246 234 215 205 201 203 199 195 186 189 190 196 199 193 197 189 189 218 186 197 200 205 200 194 204 141 160 133 150 213 157 212 217 239 170
352 337 329 274 259 245 255 242 234 242 226 208 214 202 206 200 190 187 190 197 193 191 195 186 188 204 191 188 193 193 177 191 209 157 161 142 182 198 199 218 256 230 168
342 338 336 327 284 249 250 253 241 237 237 218 213 209 208 207 196 192 192 196 190 194 186 191 190 185 191 182 188 172 193 165 212 170 159 159 180 185 193 225 204 250 240
336 334 332 329 323 276 280 269 251 240 238 224 217 211 212 212 201 197 192 195 189 188 188 194 186 182 184 167 183 178 178 152 181 160 158 180 180 187 213 190 203 223 231
329 325 322 322 319 326 265 267 268 255 241 230 223 218 217 216 204 197 193 189 186 183 185 187 188 180 178 178 182 177 158 156 165 176 168 170 193 168 208 210 225 193 174
321 317 316 317 316 322 330 275 248 253 252 236 230 223 221 216 202 186 190 187 187 184 182 184 187 149 158 163 151 149 157 160 167 180 150 179 195 179 202 177 213 202 214
310 309 310 312 313 314 314 307 273 239 240 251 238 227 221 219 186 177 186 189 184 182 179 178 161 164 160 161 136 130 103 92 108 141 114 206 166 203 156 218 179 200 251
302 304 306 304 308 313 306 297 298 276 244 242 248 234 222 221 178 177 182 192 189 182 180 177 166 165 167 152 150 156 131 124 91 93 298 225 162 199 151 209 157 209 243
296 299 301 306 306 306 302 302 301 294 274 247 243 235 222 221 175 175 175 195 191 184 178 170 163 163 155 154 155 158 142 131 86 74 57 92 97 89 155 176 183 217 230
295 295 298 298 294 296 298 299 294 296 293 263 238 231 217 218 180 180 180 187 186 180 169 168 164 166 157 159 157 154 151 158 163 151 192 157 149 129 152 256 240 233 208
291 297 296 298 293 277 286 293 299 307 293 279 236 220 226 215 190 184 182 186 181 172 169 165 174 165 167 164 151 155 159 153 155 183 201 188 185 184 200 217 228 281 261
297 290 293 299 295 290 283 288 293 301 292 278 248 228 224 213 186 192 185 186 187 178 185 175 172 167 163 153 153 145 142 151 181 185 196 190 189 198 192 187 206 235 300
297 296 288 292 297 300 292 291 295 302 302 286 247 225 220 184 182 191 196 194 187 187 183 163 154 163 157 149 141 147 160 177 176 188 192 189 189 192 184 172 182 196 225
283 288 290 297 291 287 283 280 282 291 299 308 242 222 212 194 185 187 198 190 180 200 153 152 158 163 162 157 152 161 177 184 172 195 194 185 181 181 183 174 192 192 217
284 288 283 279 277 288 281 284 260 257 263 288 295 246 212 200 198 184 181 189 176 170 143 140 152 159 155 157 168 173 198 172 190 198 183 182 174 178 179 179 204 202 215
292 289 279 287 301 287 283 285 233 239 260 257 267 263 267 272 172 185 190 185 167 154 147 158 164 166 164 165 167 173 179 181 208 186 183 186 175 174 179 189 203 214 206
288 284 276 287 283 286 281 280 293 283 247 276 281 269 237 201 173 185 198 176 158 156 162 168 167 168 165 166 164 173 169 179 199 191 188 178 172 178 182 183 192 201 216
299 282 283 287 286 284 288 294 299 292 296 286 27 327 243 185 165 140 137 132 151 180 155 157 157 153 153 160 161 174 175 183 195 191 181 174 173 185 181 189 189 202 215
301 303 317 298 291 303 317 312 300 303 282 316 337 329 8 129 155 146 151 162 166 166 157 156 144 159 153 160 177 158 171 193 188 189 176 176 179 184 181 199 196 197 204
337 18 351 341 332 330 328 316 309 307 4 305 281 346 90 102 148 166 167 163 166 159 154 150 147 157 154 154 159 167 194 164 184 190 175 178 177 193 190 191 198 187 199
337 354 347 345 342 334 338 329 322 324 300 313 16 165 175 148 151 165 154 161 153 151 144 141 145 146 153 152 164 187 182 167 182 181 181 178 180 193 202 191 202 208 204
1 2 1 354 346 350 346 357 352 10 32 22 337 29 25 122 135 144 136 127 137 142 141 143 144 151 152 162 182 179 175 169 175 180 187 183 183 197 199 210 206 209 201
5 351 355 1 2 355 5 6 15 23 36 23 91 53 88 106 91 98 99 104 115 124 133 136 141 151 150 185 169 180 174 176 171 190 190 193 190 195 203 204 207 216 217
5 3 360 3 12 13 7 13 15 31 33 46 40 58 69 72 89 94 97 98 114 123 132 136 125 117 157 188 153 175 184 181 182 190 196 198 197 188 205 206 211 208 204
6 11 8 7 14 13 8 18 32 41 43 43 45 55 66 79 91 106 109 109 113 123 128 117 99 78 105 61 226 183 216 161 197 179 196 207 205 201 197 220 206 213 219
26 15 14 12 17 22 21 20 30 32 49 60 64 70 72 74 80 86 105 118 118 114 120 132 126 132 164 231 281 271 143 127 119 75 215 200 210 211 216 211 220 235 241